170  
ASUS41 KLWX 182010  
RWRLWX  
 
REGIONAL WEATHER ROUNDUP  
NATIONAL WEATHER SERVICE BALTIMORE MD/WASHINGTON DC  
400 PM EDT WED JUL 18 2018  
 
NOTE: "FAIR" INDICATES FEW OR NO CLOUDS BELOW 12,000 FEET  
WITH NO SIGNIFICANT WEATHER AND/OR S TO VISIBILITY
.  
TC=TEMPERATURE CELSIUS  
 
* =NON NWS SITE. STATION DOES NOT REPORT PRECIPITATION (E.G. RAIN,  
SNOW, ETC.), THUNDER, OR FOG.
 
 
DCZ001-MDZ009-015-VAZ040>042-051-053>054-182100-  
WASHINGTON METRO  
 
CITY SKY/WX TMP DP RH WIND PRES REMARKS
 
WASHINGTON NAT FAIR 88 55 32 N14 29.95S  
DULLES FAIR 81 55 40 N9 29.97S  
ANDREWS AFB FAIR 85 53 32 N12 29.94S  
FT BELVOIR FAIR 87 54 32 N10 29.95S  
QUANTICO FAIR 87 57 35 NW13 29.95F  
COLLEGE PARK* FAIR 85 56 37 NW7 29.94S  
LEESBURG* PTSUNNY 82 59 44 N8 29.98F  
MANASSAS* FAIR 84 58 40 N13 29.97S  
GAITHERSBURG* FAIR 83 58 42 VRB3 29.98S  
 

 
 
MDZ006>007-011-014-182100-  
BALTIMORE METRO  
 
CITY SKY/WX TMP DP RH WIND PRES REMARKS
 
BWI AIRPORT FAIR 87 55 33 NW10 29.93F  
MD SCIENCE CTR N/A 88 55 32 MISG 29.93F  
MARTIN STATE MOSUNNY 88 59 37 N5 29.94F  
ANNAPOLIS FAIR 86 59 39 NE7 29.93S  
FORT MEADE* FAIR 82 55 39 N6 29.96F  
 

 
 
MDZ012-015-019>023-182100-  
MARYLAND EASTERN SHORE  
 
CITY SKY/WX TMP DP RH WIND PRES REMARKS
 
OCEAN CITY FAIR 82 63 52 E9 29.91F  
SALISBURY FAIR 85 58 39 W14 29.91S  
BAY BRIDGE AP* FAIR 84 57 39 N7 29.93F  
CAMBRIDGE* SUNNY 84 54 34 NW12 29.93S  
EASTON* MOSUNNY 86 57 37 NW12 29.96F  
 

 
 
MDZ017>025-182100-  
SOUTHERN MARYLAND  
 
CITY SKY/WX TMP DP RH WIND PRES REMARKS
 
PATUXENT RIVER FAIR 88 57 34 NW10 29.93S  
ST INIGOES PTSUNNY 83 61 47 W10 29.92F  
LEONARDTOWN* FAIR 84 52 32 NW6 29.95F  
 

 
 
MDZ003>005-182100-  
NORTH CENTRAL MARYLAND  
 
CITY SKY/WX TMP DP RH WIND PRES REMARKS
 
FREDERICK* PTSUNNY 84 46 26 N5 30.00S  
HAGERSTOWN APT FAIR 83 56 39 NW8 29.99F  
WESTMINSTER* FAIR 84 57 39 NE8 29.98S  
 

 
 
MDZ501>502-182100-  
WESTERN MARYLAND  
 
CITY SKY/WX TMP DP RH WIND PRES REMARKS
 
OAKLAND* FAIR 70 50 49 NW7 30.11F  
CUMBERLAND* FAIR 82 50 32 NW6 30.05S  
 

 
 
VAZ025>031-182100-  
SHENANDOAH VALLEY  
 
CITY SKY/WX TMP DP RH WIND PRES REMARKS
 
WINCHESTER* FAIR 77 55 47 CALM 30.02F  
FRONT ROYAL* FAIR 81 57 44 N5 30.00S  
LURAY* PTSUNNY 81 52 36 NW8 30.01S  
NEW MARKET* PTSUNNY 78 52 40 CALM 29.99F  
STAUNTON* FAIR 80 51 35 N7 30.04F  
WAYNESBORO* FAIR 80 53 38 N7 30.03S  
 

 
 
WVZ021-048>050-054>055-182100-  
EASTERN WEST VIRGINIA PANHANDLE  
 
CITY SKY/WX TMP DP RH WIND PRES REMARKS
 
MARTINSBURG FAIR 83 56 39 N9 29.98F  
PETERSBURG* FAIR 78 54 42 N3 30.01F  
 

 
 
VAZ036>039-050-182100-  
CENTRAL FOOTHILLS  
 
CITY SKY/WX TMP DP RH WIND PRES REMARKS
 
CHARLOTTESVILL FAIR 85 56 37 VRB7 29.98F  
CULPEPER* FAIR 83 54 36 N10 29.99F  
ORANGE* FAIR 81 55 41 NE6 29.98F  
GORDONSVILLE* FAIR 82 57 42 NE10 29.98F  
WARRENTON* FAIR 84 50 30 NW6G20 29.98F  
 

 
 
VAZ055>057-182100-  
NORTH AND CENTRAL PIEDMONT  
 
CITY SKY/WX TMP DP RH WIND PRES REMARKS
 
FREDERICKSBRG* FAIR 85 57 38 N7 29.95F  
STAFFORD* FAIR 86 53 32 NW8 30.00F  
 

 
 
NCZ024-NYZ072-PAZ021-071-VAZ022-071-182100-  
OTHER REGIONAL OBSERVATIONS  
 
CITY SKY/WX TMP DP RH WIND PRES REMARKS
 
NEW YORK CITY PTSUNNY 80 59 48 VRB3 29.92S  
PHILADELPHIA FAIR 85 53 33 NE9G20 29.91S  
PITTSBURGH FAIR 78 49 35 VRB6 30.06S  
ROANOKE PTSUNNY 84 53 34 CALM 30.02F  
RICHMOND FAIR 86 57 37 NE10 29.95S  
RALEIGH PTSUNNY 88 58 36 VRB6 29.95F  
 

 
 
ANZ530>537-182100-  
MARINE OBSERVATIONS  
 
STATION/POSITION TIME TEMP WIND PRES
 
AIR SEA DIR/SP/G  
(UTC) (F) (DEG/KT/KT) (MB)  
THOMAS PT LIGHT 2000 81 81 30/ 12/ 13 1014.3F  
BALT KEY BRIDGE 1942 83 20/ 8/ 10 1013.4F  
COVE POINT 1942 80 40/ 6/ 9 1014.3F  
LEWISETTA 1942 83 82 350/ 7/ 9 1013.7F  
SOLOMONS ISLAND 1942 83 81 300/ 5/ 9 1013.3F  
 

 
 
 
 
CLICK HERE TO GO TO PREVIOUS BULLETINS.

The Nexlab VA Page
The Nexlab MD Page
The Nexlab WV Page Main Text Page